Location: ?????????
(41.2286°N, 23.0068°E)
Time: 08:18:13
(UTC+00:00)

Cosmos 1727 Rocket - Pass Details

Date: 08 November 2025
Orbit: 961 x 995 km, 82.9° (Epoch: 04 December)

Event Time Altitude Azimuth Distance (km) Brightness Sun altitude
Rises 03:06:12 0° 199° (SSW) 3,631 6.8 -23.1°
Reaches altitude 10° 03:08:45 10° 204° (SSW) 2,690 6.1 -22.6°
Maximum altitude 03:14:46 55° 281° (W) 1,156 4.0 -21.5°
Drops below altitude 10° 03:20:52 10° 359° (N) 2,724 6.3 -20.3°
Sets 03:23:28 0° 4° (N) 3,680 7.0 -19.8°
